Startpagina
METAR-TAF:

METAR-TAF

Vliegvelden :

Goeree Le, Nederland

Productieplatform

breedte: 51-55-33N, lengte: 3-40-12E, hoogte: 19 m

Actueel weer

Dit bericht is 45 minuten geleden gemaakt, om 00:25 UTC
Wind 25 kt uit het noordnoordwesten met uitschieters tot 30 kt
Temperatuur 9°C
Vochtigheid 57%
Druk 1016 hPa
Zicht 10 km of meer

METAR: EHSC 190025Z AUTO 33025G30KT 9999 ///////// 09/01 Q1016 W12/H23

Tijdstip: 02:10 (01:10 UTC)


TAF: ontbreekt

Waarnemingen en weersverwachtingen van meer dan 4000 vliegvelden (METAR en TAF).

De beschikbare stations zijn de gele en rode punten op de kaart.

Ga met uw muis naar het station om de naam te zien.

Klik dan om waarnemingen en weersverwachtingen te zien.

kaart wijzigen: klik op de groene knoppen met een zwart kruis om in te zoomen, op de groene knop met een streepje om uit te zoomen of op de groene pijlen voor aangrenzende kaarten.


METAR-TAF: